This is the latest recevied weather packets stored in our database for station/object PP5FMM-13. If no packets are shown the sender has not sent any weather packets the latest 10 day(s).
| Time | Temp. | Humidity | Pressure | Rain* | Wind** | Luminosity | Snow |
|---|---|---|---|---|---|---|---|
| 1778076635 | 28.89° C | 90% | 1019.4 hPa | - | - | - | - |
| 1778076334 | 28.89° C | 89% | 1019.4 hPa | - | - | - | - |
| 1778076035 | 28.89° C | 89% | 1019.5 hPa | - | - | - | - |
| 1778075735 | 28.89° C | 89% | 1019.6 hPa | - | - | - | - |
| 1778075435 | 28.89° C | 88% | 1019.8 hPa | - | - | - | - |
| 1778075134 | 28.89° C | 87% | 1019.9 hPa | - | - | - | - |
| 1778074835 | 29.44° C | 86% | 1019.7 hPa | - | - | - | - |
| 1778074535 | 29.44° C | 84% | 1019.7 hPa | - | - | - | - |
| 1778074234 | 30° C | 83% | 1019.7 hPa | - | - | - | - |
| 1778073935 | 30° C | 81% | 1019.8 hPa | - | - | - | - |
| 1778073635 | 30.56° C | 80% | 1019.9 hPa | - | - | - | - |
| 1778073335 | 30.56° C | 79% | 1019.8 hPa | - | - | - | - |
| 1778073035 | 31.11° C | 79% | 1019.9 hPa | - | - | - | - |
| 1778072735 | 31.11° C | 79% | 1019.9 hPa | - | - | - | - |
| 1778072435 | 31.11° C | 78% | 1019.8 hPa | - | - | - | - |
| 1778072135 | 31.11° C | 78% | 1019.8 hPa | - | - | - | - |
| 1778071835 | 31.11° C | 79% | 1019.8 hPa | - | - | - | - |
| 1778071535 | 31.11° C | 79% | 1019.8 hPa | - | - | - | - |
| 1778071235 | 30.56° C | 80% | 1019.8 hPa | - | - | - | - |
| 1778070935 | 30.56° C | 81% | 1019.8 hPa | - | - | - | - |
| 1778070635 | 30° C | 82% | 1019.8 hPa | - | - | - | - |
| 1778070335 | 30° C | 84% | 1019.8 hPa | - | - | - | - |
| 1778070036 | 29.44° C | 86% | 1019.8 hPa | - | - | - | - |
| 1778069735 | 29.44° C | 87% | 1019.8 hPa | - | - | - | - |
| 1778069435 | 28.89° C | 90% | 1019.8 hPa | - | - | - | - |
* Rain since midnight (hover to see other rain measurements)
** Current wind speed in m/s (hover to see current wind gust speed)